Погода в Каламаки

Греция     35°01′45″N   24°45′37″E
темп.,
°C
ветер,
м/с
пор.,
м/с
влажн.,
%
обл.,
%
осадки,
мм/ч
давл.,
гПа
погр.,
м
4 июля, пн
пн400:00+24ссв45560 0.0 100966
03:00+23ссв56630 0.0 1009111
06:00+22ссв67670 0.0 1008168
09:00+26с45490 0.0 1008169
12:00+29зсз22450 0.0 1008328
15:00+28юз23480 0.0 1008355
18:00+28зсз12470 0.0 1008297
21:00+25ссв34560 0.0 100849
5 июля, вт
вт500:00+24с44520 0.0 100948
03:00+24ссв55470 0.0 100958
06:00+22ссв56590 0.0 1008123
09:00+26с44480 0.0 1009170
12:00+29сз23440 0.0 1009368
15:00+29ююз23420 0.0 1008423
18:00+28всв13460 0.0 1008295
21:00+25с22570 0.0 100932
6 июля, ср
ср600:00+24ссв33500 0.0 100938
03:00+24ссв44500 0.0 100943
06:00+23ссв55530 0.0 100867
09:00+27с23470 0.0 1008201
12:00+29зсз23400 0.0 1009366
15:00+30зсз23410 0.0 1008526
18:00+30сз12430 0.0 1008333
21:00+27с33460 0.0 100936
7 июля, чт
чт700:00+26ссв33450 0.0 100923
03:00+25ссв33430 0.0 100926
06:00+25ссв33470 0.0 100928
09:00+28ссз12470 0.0 1009335
12:00+30сз45420 0.0 1009664
15:00+31сз56370 0.0 1008632
18:00+29сз23460 0.0 1009360
21:00+28ссз44420 0.0 100926
8 июля, пт
пт800:00+27ссв33430 0.0 101023
03:00+26ссв33450 0.0 100921
06:00+26св32460 0.0 100919
09:00+28ю12460 0.0 1009227
12:00+28ююз33510 0.0 1009518
15:00+27з335829 0.0 1009543
18:00+27з447430 0.0 1008287
21:00+25сз12760 0.0 1008107